This demonstration page uses our WeatherBlox Daily Observations layout. Learn more.

Left ArrowRight Arrow

Hourly Observations for April 18, 2021

Temp ( °F °C ) Dew Point ( °F °C ) Humidity (%) Winds ( mph kmh ) Pressure ( in mb ) Visibility ( mi km ) Precip ( " mm )
12:53 am 00:53 Mostly Clear 48 8.9 24 -4.4 39 39 ESE 3 6 30.10 1019 10 16 0.00 0.00
1:53 am 01:53 Mostly Cloudy 45 7.2 24 -4.4 44 44 NE 8 13 30.11 1020 10 16 0.00 0.00
2:53 am 02:53 Partly Cloudy 37 2.8 21 -6.1 52 52 S 5 7 30.10 1019 10 16 0.00 0.00
3:53 am 03:53 Clear 37 2.8 23 -5 57 57 Calm 30.10 1019 10 16 0.00 0.00
4:53 am 04:53 Clear 31 -0.6 22 -5.6 69 69 E 5 7 30.09 1019 10 16 0.00 0.00
5:53 am 05:53 Clear 36 2.2 25 -3.9 64 64 NE 6 9 30.09 1019 10 16 0.00 0.00
6:53 am 06:53 Sunny 37 2.8 24 -4.4 59 59 ENE 9 15 30.12 1020 10 16 0.00 0.00
7:53 am 07:53 Sunny 39 3.9 25 -3.9 57 57 ENE 15 24 30.15 1021 10 16 0.00 0.00
8:53 am 08:53 Mostly Sunny 42 5.6 27 -2.8 55 55 E 18 30 30.16 1021 10 16 0.00 0.00
9:53 am 09:53 Mostly Sunny 43 6.1 28 -2.2 56 56 E 24 39 30.19 1022 10 16 0.00 0.00
10:53 am 10:53 Mostly Cloudy 45 7.2 31 -0.6 58 58 E 23 37 30.21 1023 10 16 0.00 0.00
11:29 am 11:29 Cloudy 44 6.7 32 0 63 63 E 21 33 30.22 1023 10 16 0.00 0.00
11:53 am 11:53 Cloudy 42 5.6 32 0 68 68 E 22 35 30.25 1024 10 16 0.00 0.00
12:27 pm 12:27 Cloudy 37 2.8 32 0 82 82 ENE 24 39 30.29 1026 10 16 0.00 0.00
12:39 pm 12:39 Windy with Snow Likely 35 1.7 33 0.6 93 93 ENE 21 33 30.31 1027 5 8 0.00 0.00
12:48 pm 12:48 Windy with Snow Likely 36 2 34 1 93 93 ENE 21 33 30.31 1026 2 3 0.00 0.00
12:53 pm 12:53 Cloudy with Light Snow 35 1.7 33 0.6 93 93 ENE 18 30 30.28 1025 1 2 0.01 0.25
1:08 pm 13:08 Cloudy with Light Snow 33 0.6 32 0 96 96 ENE 18 30 30.33 1027 1 1 0.00 0.00
1:17 pm 13:17 Cloudy with Snow 33 0.6 32 0 96 96 ENE 16 26 30.34 1028 1 1 0.02 0.51
1:49 pm 13:49 Cloudy with Light Snow 34 1 34 1 100 100 ENE 12 19 30.35 1028 1 2 0.04 1.02
1:53 pm 13:53 Cloudy with Light Snow 34 1.1 33 0.6 97 97 ENE 14 22 30.32 1027 1 2 0.05 1.27
2:10 pm 14:10 Cloudy with Light Snow 36 2 34 1 93 93 ENE 15 24 30.35 1028 2 2 0.00 0.00
2:22 pm 14:22 Cloudy with Light Snow 35 1.7 33 0.6 93 93 ENE 17 28 30.35 1028 3 4 0.01 0.25
2:53 pm 14:53 Cloudy with Light Snow 35 1.7 33 0.6 93 93 ENE 14 22 30.37 1028 3 4 0.03 0.76
3:02 pm 15:02 Cloudy with Light Snow 35 1.7 33 0.6 93 93 ENE 14 22 30.38 1029 3 5 0.00 0.00
3:24 pm 15:24 Cloudy with Light Snow 35 1.7 33 0.6 93 93 ENE 17 28 30.38 1029 3 4 0.01 0.25
3:40 pm 15:40 Cloudy with Light Snow 34 1.1 32 0 92 92 NE 16 26 30.40 1029 1 2 0.02 0.51
3:48 pm 15:48 Cloudy with Snow 34 1 30 -1 87 87 NE 21 33 30.40 1029 1 1 0.02 0.51
3:49 pm 15:49 Cloudy with Snow 34 1 30 -1 87 87 NE 20 31 30.40 1029 1 1 0.02 0.51
3:53 pm 15:53 Cloudy with Light Snow 33 0.6 31 -0.6 92 92 NE 18 30 30.39 1029 1 1 0.03 0.76
4:02 pm 16:02 Cloudy with Light Snow 34 1.1 31 -0.6 89 89 NE 17 28 30.41 1030 1 2 0.00 0.00
4:36 pm 16:36 Cloudy with Light Snow 33 0.6 32 0 96 96 NE 13 20 30.43 1030 1 1 0.01 0.25
4:48 pm 16:48 Cloudy with Light Snow 34 1 32 0 93 93 NE 13 20 30.42 1030 1 2 0.01 0.25
4:53 pm 16:53 Cloudy with Light Snow 33 0.6 33 0.6 100 100 ENE 15 24 30.42 1030 1 2 0.01 0.25
5:11 pm 17:11 Cloudy with Snow 33 0.6 32 0 96 96 NE 12 19 30.44 1031 1 1 0.01 0.25
5:16 pm 17:16 Cloudy with Snow 33 0.6 33 0.6 100 100 NNE 12 19 30.45 1031 1 1 0.02 0.51
5:22 pm 17:22 Cloudy with Light Snow 33 0.6 32 0 96 96 NNE 12 19 30.45 1031 1 2 0.02 0.51
5:27 pm 17:27 Cloudy with Light Snow 33 0.6 32 0 96 96 NNE 9 15 30.45 1031 2 3 0.02 0.51
5:44 pm 17:44 Cloudy with Light Snow 33 0.6 33 0.6 100 100 NE 12 19 30.45 1031 1 2 0.02 0.51
5:53 pm 17:53 Cloudy with Light Snow 34 1.1 34 1.1 100 100 NE 10 17 30.43 1030 2 3 0.02 0.51
5:57 pm 17:57 Cloudy with Light Snow 33 0.6 33 0.6 100 100 NE 13 20 30.45 1031 1 1 0.00 0.00
6:05 pm 18:05 Cloudy with Light Snow 33 0.6 33 0.6 100 100 ENE 9 15 30.45 1031 1 2 0.01 0.25
6:07 pm 18:07 Cloudy with Light Snow 33 0.6 33 0.6 100 100 ENE 8 13 30.45 1031 2 3 0.01 0.25
6:15 pm 18:15 Cloudy with Light Snow 34 1.1 34 1.1 100 100 ENE 9 15 30.43 1030 6 10 0.01 0.25
6:36 pm 18:36 Cloudy with Light Snow 33 0.6 33 0.6 100 100 NE 13 20 30.45 1031 2 3 0.01 0.25
6:42 pm 18:42 Cloudy with Light Snow 33 0.6 33 0.6 100 100 NE 15 24 30.46 1031 3 5 0.01 0.25
6:53 pm 18:53 Cloudy with Light Snow 33 0.6 32 0 96 96 NE 12 19 30.43 1031 3 5 0.01 0.25
6:58 pm 18:58 Cloudy with Light Snow 34 1 34 1 100 100 NNE 10 17 30.45 1031 3 4 0.00 0.00
7:06 pm 19:06 Cloudy with Light Snow 33 0.6 32 0 96 96 NNE 9 15 30.46 1031 2 3 0.00 0.00
7:20 pm 19:20 Cloudy with Light Snow 34 1 34 1 100 100 NNE 7 11 30.45 1031 3 4 0.00 0.00
7:28 pm 19:28 Cloudy with Light Snow 33 0.6 33 0.6 100 100 NNE 6 9 30.46 1031 3 4 0.00 0.00
7:38 pm 19:38 Cloudy with Light Snow 33 0.6 33 0.6 100 100 NNE 6 9 30.45 1031 3 5 0.00 0.00
7:45 pm 19:45 Cloudy with Light Snow 34 1 34 1 100 100 NNE 3 6 30.44 1031 3 4 0.00 0.00
7:53 pm 19:53 Cloudy with Light Snow 33 0.6 33 0.6 100 100 N 3 6 30.43 1031 3 5 0.00 0.00
8:03 pm 20:03 Cloudy with Light Snow 34 1 34 1 100 100 Calm 30.45 1031 3 4 0.00 0.00
8:12 pm 20:12 Cloudy with Light Snow 33 0.6 33 0.6 100 100 Calm 30.46 1031 5 8 0.00 0.00
8:53 pm 20:53 Cloudy 34 1.1 32 0 92 92 N 13 20 30.44 1031 10 16 0.00 0.00
9:53 pm 21:53 Cloudy 33 0.6 27 -2.8 78 78 NNW 6 9 30.45 1031 10 16 0.00 0.00
10:53 pm 22:53 Cloudy 32 0 27 -2.8 82 82 WNW 5 7 30.45 1031 10 16 0.00 0.00
11:53 pm 23:53 Mostly Clear 31 -0.6 26 -3.3 82 82 NNW 9 15 30.46 1031 10 16 0.00 0.00

Powered by AerisWeather